TimeCST,TemperatureF,Dew PointF,Humidity,Sea Level PressureIn,VisibilityMPH,Wind Direction,Wind SpeedMPH,Gust SpeedMPH,PrecipitationIn,Events,Conditions,WindDirDegrees,DateUTC
12:15 AM,19.4,14.0,80,30.07,10.0,Calm,Calm,-,N/A,,Clear,0,2012-12-11 06:15:00
12:35 AM,19.4,15.8,86,30.06,10.0,Calm,Calm,-,N/A,,Clear,0,2012-12-11 06:35:00
1:15 AM,19.4,15.8,86,30.06,10.0,Calm,Calm,-,N/A,,Clear,0,2012-12-11 07:15:00
1:35 AM,19.4,15.8,86,30.07,10.0,Calm,Calm,-,N/A,,Clear,0,2012-12-11 07:35:00
1:55 AM,19.4,14.0,80,30.06,10.0,Calm,Calm,-,N/A,,Clear,0,2012-12-11 07:55:00
2:16 AM,19.4,15.8,86,30.07,10.0,Calm,Calm,-,N/A,,Clear,0,2012-12-11 08:16:00
2:35 AM,19.4,15.8,86,30.07,10.0,Calm,Calm,-,N/A,,Clear,0,2012-12-11 08:35:00
2:55 AM,19.4,14.0,80,30.07,10.0,South,4.6,-,N/A,,Clear,170,2012-12-11 08:55:00
3:35 AM,19.4,15.8,86,30.06,10.0,Calm,Calm,-,N/A,,Clear,0,2012-12-11 09:35:00
4:15 AM,19.4,15.8,86,30.06,10.0,Calm,Calm,-,N/A,,Clear,0,2012-12-11 10:15:00
4:35 AM,19.4,15.8,86,30.05,10.0,Calm,Calm,-,N/A,,Clear,0,2012-12-11 10:35:00
4:55 AM,19.4,15.8,86,30.05,10.0,Calm,Calm,-,N/A,,Clear,0,2012-12-11 10:55:00
5:16 AM,19.4,15.8,86,30.06,10.0,South,3.5,-,N/A,,Clear,170,2012-12-11 11:16:00
5:35 AM,17.6,14.0,86,30.07,10.0,South,3.5,-,N/A,,Clear,190,2012-12-11 11:35:00
5:55 AM,17.6,14.0,86,30.07,10.0,Calm,Calm,-,N/A,,Clear,0,2012-12-11 11:55:00
6:16 AM,17.6,14.0,86,30.08,10.0,Calm,Calm,-,N/A,,Clear,0,2012-12-11 12:16:00
6:35 AM,17.6,15.8,93,30.08,10.0,Calm,Calm,-,N/A,,Clear,0,2012-12-11 12:35:00
7:15 AM,17.6,15.8,93,30.09,10.0,Calm,Calm,-,N/A,,Clear,0,2012-12-11 13:15:00
7:35 AM,19.4,15.8,86,30.10,10.0,Calm,Calm,-,N/A,,Clear,0,2012-12-11 13:35:00
8:15 AM,23.0,17.6,80,30.11,10.0,South,3.5,-,N/A,,Clear,190,2012-12-11 14:15:00
8:16 AM,23.0,17.6,80,30.11,10.0,SSW,4.6,-,N/A,,Clear,200,2012-12-11 14:16:00
8:35 AM,24.8,17.6,74,30.11,10.0,South,3.5,-,N/A,,Clear,180,2012-12-11 14:35:00
8:55 AM,26.6,17.6,69,30.12,10.0,South,3.5,-,N/A,,Clear,180,2012-12-11 14:55:00
9:35 AM,30.2,17.6,60,30.13,10.0,South,5.8,-,N/A,,Clear,190,2012-12-11 15:35:00
9:55 AM,30.2,17.6,60,30.14,10.0,SW,6.9,-,N/A,,Clear,220,2012-12-11 15:55:00
10:15 AM,33.8,15.8,48,30.15,10.0,SW,4.6,-,N/A,,Clear,230,2012-12-11 16:15:00
10:55 AM,35.6,17.6,48,30.15,10.0,SW,8.1,-,N/A,,Clear,220,2012-12-11 16:55:00
11:35 AM,37.4,17.6,45,30.14,10.0,South,5.8,-,N/A,,Clear,190,2012-12-11 17:35:00
11:56 AM,39.2,17.6,42,30.13,10.0,SW,6.9,-,N/A,,Clear,220,2012-12-11 17:56:00
12:15 PM,41.0,17.6,39,30.12,10.0,SSW,5.8,-,N/A,,Clear,210,2012-12-11 18:15:00
12:35 PM,42.8,17.6,36,30.11,10.0,SW,8.1,-,N/A,,Clear,230,2012-12-11 18:35:00
1:15 PM,44.6,17.6,34,30.10,10.0,SW,4.6,-,N/A,,Clear,230,2012-12-11 19:15:00
1:35 PM,44.6,15.8,31,30.10,10.0,SSW,10.4,-,N/A,,Clear,210,2012-12-11 19:35:00
1:55 PM,44.6,15.8,31,30.09,10.0,WSW,11.5,-,N/A,,Clear,250,2012-12-11 19:55:00
2:15 PM,44.6,15.8,31,30.09,10.0,West,9.2,-,N/A,,Clear,260,2012-12-11 20:15:00
2:35 PM,44.6,15.8,31,30.09,10.0,WSW,8.1,-,N/A,,Clear,240,2012-12-11 20:35:00
2:55 PM,46.4,15.8,29,30.09,10.0,SW,9.2,-,N/A,,Clear,220,2012-12-11 20:55:00
3:15 PM,46.4,15.8,29,30.09,10.0,SSW,10.4,-,N/A,,Clear,210,2012-12-11 21:15:00
3:35 PM,46.4,15.8,29,30.09,10.0,SW,9.2,-,N/A,,Clear,220,2012-12-11 21:35:00
3:55 PM,44.6,15.8,31,30.10,10.0,SSW,8.1,-,N/A,,Clear,210,2012-12-11 21:55:00
4:35 PM,42.8,14.0,31,30.10,10.0,SW,6.9,-,N/A,,Clear,220,2012-12-11 22:35:00
4:55 PM,41.0,15.8,36,30.11,10.0,SW,4.6,-,N/A,,Clear,230,2012-12-11 22:55:00
5:15 PM,39.2,14.0,36,30.11,10.0,SW,4.6,-,N/A,,Clear,230,2012-12-11 23:15:00
5:55 PM,37.4,14.0,38,30.12,10.0,SW,3.5,-,N/A,,Clear,220,2012-12-11 23:55:00
6:15 PM,35.6,14.0,41,30.12,10.0,SW,3.5,-,N/A,,Clear,220,2012-12-12 00:15:00
6:35 PM,35.6,14.0,41,30.13,10.0,SSW,4.6,-,N/A,,Clear,210,2012-12-12 00:35:00
6:55 PM,33.8,14.0,44,30.13,10.0,SSW,3.5,-,N/A,,Clear,210,2012-12-12 00:55:00
7:35 PM,33.8,14.0,44,30.14,10.0,South,4.6,-,N/A,,Clear,190,2012-12-12 01:35:00
7:55 PM,33.8,12.2,41,30.15,10.0,South,3.5,-,N/A,,Clear,190,2012-12-12 01:55:00
8:15 PM,32.0,12.2,44,30.16,10.0,South,4.6,-,N/A,,Clear,190,2012-12-12 02:15:00
8:36 PM,33.8,12.2,41,30.16,10.0,South,4.6,-,N/A,,Clear,190,2012-12-12 02:36:00
8:55 PM,33.8,12.2,41,30.16,10.0,SSW,4.6,-,N/A,,Clear,200,2012-12-12 02:55:00
9:15 PM,32.0,12.2,44,30.17,10.0,South,4.6,-,N/A,,Clear,170,2012-12-12 03:15:00
9:35 PM,28.4,12.2,51,30.17,10.0,South,4.6,-,N/A,,Clear,170,2012-12-12 03:35:00
9:55 PM,30.2,12.2,47,30.18,10.0,South,4.6,-,N/A,,Clear,180,2012-12-12 03:55:00
10:15 PM,30.2,12.2,47,30.18,10.0,South,4.6,-,N/A,,Clear,180,2012-12-12 04:15:00
10:35 PM,30.2,12.2,47,30.18,10.0,South,6.9,-,N/A,,Clear,170,2012-12-12 04:35:00
11:15 PM,30.2,12.2,47,30.19,10.0,South,4.6,-,N/A,,Clear,170,2012-12-12 05:15:00
11:35 PM,30.2,12.2,47,30.20,10.0,South,4.6,-,N/A,,Clear,180,2012-12-12 05:35:00
11:55 PM,28.4,12.2,51,30.20,10.0,SSE,4.6,-,N/A,,Clear,160,2012-12-12 05:55:00